K8BCO Weather Reports


time (UTC)temp
F
wind
direction
speed
knots
gust
knots
rain 1hr
in
rain 24hr
in
rain mn
in
humidity
%
barometer
mb
20260509212517 46 18 2.6 7.0 0.00 0.00 0.00 61 1006.2
20260509211518 46 13 2.6 7.8 0.00 0.00 0.00 61 1006.0
20260509210517 47 27 4.3 9.6 0.00 0.00 0.00 60 1005.9
20260509205517 48 25 3.5 7.8 0.00 0.00 0.00 57 1005.6
20260509204518 49 349 3.5 8.7 0.00 0.00 0.00 54 1005.5
20260509203517 48 13 3.5 7.8 0.00 0.00 0.00 55 1005.4
20260509202518 50 15 2.6 7.0 0.00 0.00 0.00 55 1005.3
20260509201518 50 28 3.5 8.7 0.00 0.00 0.00 54 1005.1
20260509200518 49 348 1.7 6.1 0.00 0.00 0.00 55 1005.0
20260509195519 48 8 4.3 8.7 0.00 0.00 0.00 56 1004.9
20260509194518 47 30 4.3 7.8 0.00 0.00 0.00 59 1004.7
20260509193518 46 341 3.5 8.7 0.00 0.00 0.00 64 1004.7
20260509192516 47 16 3.5 7.8 0.00 0.00 0.00 61 1004.6
20260509191516 47 343 4.3 8.7 0.00 0.00 0.00 64 1004.0
20260509190516 48 19 3.5 8.7 0.00 0.00 0.00 63 1003.6
20260509185516 49 30 4.3 8.7 0.00 0.00 0.00 56 1003.0
20260509184516 50 24 4.3 7.8 0.00 0.00 0.00 53 1002.7
20260509183516 50 352 4.3 8.7 0.00 0.00 0.00 51 1002.4
20260509182518 51 19 3.5 8.7 0.00 0.00 0.00 51 1002.1
20260509181517 52 13 4.3 9.6 0.00 0.00 0.00 49 1001.8
20260509180521 52 359 4.3 7.8 0.00 0.00 0.00 48 1001.6
20260509175517 53 17 3.5 8.7 0.00 0.00 0.00 47 1001.3
20260509174519 56 358 5.2 9.6 0.00 0.00 0.00 41 1001.0
20260509173517 56 16 4.3 11.3 0.00 0.00 0.00 41 1000.8
20260509172518 56 13 5.2 11.3 0.00 0.00 0.00 41 1000.7
20260509171518 55 18 4.3 9.6 0.00 0.00 0.00 41 1000.6
20260509170518 56 346 6.1 10.4 0.00 0.00 0.00 40 1000.3
20260509165518 55 9 5.2 8.7 0.00 0.00 0.00 39 1000.3
20260509164518 55 353 5.2 13.0 0.00 0.00 0.00 38 1000.2
20260509163518 55 341 4.3 9.6 0.00 0.00 0.00 39 999.8
20260509162519 55 301 5.2 10.4 0.00 0.00 0.00 38 999.7
20260509161516 55 344 4.3 7.8 0.00 0.00 0.00 39 999.5
20260509160516 55 18 3.5 9.6 0.00 0.00 0.00 39 999.4
20260509155516 55 319 5.2 12.2 0.00 0.00 0.00 39 999.1
20260509154517 53 308 3.5 7.8 0.00 0.00 0.00 40 999.2
20260509153516 53 4 5.2 15.6 0.00 0.00 0.00 40 999.1
20260509152516 53 7 2.6 6.1 0.00 0.00 0.00 41 999.0
20260509151518 52 21 3.5 11.3 0.00 0.00 0.00 40 998.8
20260509150517 53 320 3.5 12.2 0.00 0.00 0.00 39 998.7
20260509145517 54 7 4.3 7.8 0.00 0.00 0.00 39 998.7
20260509144517 54 330 3.5 7.8 0.00 0.00 0.00 39 998.3
20260509143518 54 222 2.6 7.8 0.00 0.00 0.00 41 998.2
20260509142517 54 322 4.3 15.6 0.00 0.00 0.00 41 998.1
20260509141518 55 33 3.5 7.8 0.00 0.00 0.00 41 998.0
20260509140518 55 319 4.3 10.4 0.00 0.00 0.00 41 997.9
20260509135518 55 359 4.3 12.2 0.00 0.00 0.00 42 997.8
20260509134518 53 345 2.6 10.4 0.00 0.00 0.00 44 997.9
20260509133518 52 14 3.5 7.8 0.00 0.00 0.00 45 997.8
20260509132519 51 335 2.6 10.4 0.00 0.00 0.00 47 997.9
20260509131515 51 270 1.7 6.1 0.00 0.00 0.00 49 997.9
20260509130516 51 208 1.7 5.2 0.00 0.00 0.00 50 997.8
20260509125516 51 291 2.6 7.8 0.00 0.00 0.00 50 997.7
20260509124520 52 316 2.6 7.0 0.00 0.00 0.00 50 997.5
20260509123516 52 331 2.6 7.0 0.00 0.00 0.00 50 997.3
20260509122516 51 38 2.6 7.8 0.00 0.00 0.00 51 997.4
20260509121520 50 32 2.6 6.1 0.00 0.00 0.00 54 997.4
20260509120516 49 306 1.7 3.5 0.00 0.00 0.00 58 997.5
20260509115516 46 308 1.7 3.5 0.00 0.00 0.00 63 997.4
20260509114517 44 268 0.9 2.6 0.00 0.00 0.00 71 997.3
20260509113517 42 271 0.9 1.7 0.00 0.00 0.00 77 997.3
20260509112517 41 137 0.0 0.9 0.00 0.00 0.00 77 997.2
20260509111517 42 0.0 0.0 0.00 0.00 0.00 78 997.3
20260509110517 43 0.0 0.0 0.00 0.00 0.00 76 997.2
20260509105517 43 202 0.9 1.7 0.00 0.00 0.00 77 997.1
20260509104517 43 270 0.9 2.6 0.00 0.00 0.00 73 997.4
20260509103517 43 245 0.0 2.6 0.00 0.00 0.00 74 997.5
20260509102518 43 290 0.0 0.9 0.00 0.00 0.00 76 997.6
20260509101518 43 122 0.0 0.0 0.00 0.00 0.00 76 997.6
20260509100532 43 291 0.0 1.7 0.00 0.00 0.00 75 997.4
20260509095518 43 333 0.0 0.9 0.00 0.00 0.00 76 997.2
20260509094518 42 30 0.0 1.7 0.00 0.00 0.00 76 997.1
20260509093519 42 283 0.9 1.7 0.00 0.00 0.00 77 996.9
20260509092519 42 222 0.0 0.9 0.00 0.00 0.00 77 996.9
20260509091519 42 233 0.0 1.7 0.00 0.00 0.00 76 996.9
20260509090519 43 272 0.0 1.7 0.00 0.00 0.00 77 997.0
20260509085520 43 317 0.9 3.5 0.00 0.00 0.00 73 997.1
20260509084520 41 189 0.9 3.5 0.00 0.00 0.00 77 997.3
20260509083518 41 200 0.0 1.7 0.00 0.00 0.00 76 997.5
20260509082517 41 334 0.9 2.6 0.00 0.00 0.00 77 997.3
20260509081518 41 353 0.9 1.7 0.00 0.00 0.00 79 996.9
20260509080518 40 234 0.9 2.6 0.00 0.00 0.00 78 996.9
20260509075518 40 250 0.9 1.7 0.00 0.00 0.00 79 996.9
20260509074518 40 198 0.0 1.7 0.00 0.00 0.00 77 996.9
20260509073518 40 162 0.9 1.7 0.00 0.00 0.00 77 997.1
20260509072515 40 118 0.0 1.7 0.00 0.00 0.00 78 997.3
20260509071518 39 162 0.0 0.9 0.00 0.00 0.00 79 997.4
20260509070516 39 197 0.9 1.7 0.00 0.00 0.00 77 997.7
20260509065516 39 9 0.0 1.7 0.00 0.00 0.00 79 997.8
20260509064516 39 223 0.9 2.6 0.00 0.00 0.00 78 997.9
20260509063516 39 62 0.0 0.9 0.00 0.00 0.00 76 998.3
20260509062516 40 159 0.0 1.7 0.00 0.00 0.00 75 998.5
20260509061517 40 89 0.0 0.9 0.00 0.00 0.00 74 998.5
20260509060517 40 143 1.7 2.6 0.00 0.00 0.00 73 998.6
20260509055517 40 173 0.0 1.7 0.00 0.00 0.00 72 998.9
20260509054517 40 145 0.9 2.6 0.00 0.00 0.00 71 999.0
20260509053518 40 140 1.7 3.5 0.00 0.00 0.00 72 999.2
20260509052517 40 174 0.9 2.6 0.00 0.00 0.00 71 999.4
20260509051518 41 153 0.9 2.6 0.00 0.00 0.00 69 999.5
20260509050518 42 127 1.7 2.6 0.00 0.00 0.00 67 999.6
20260509045518 42 148 0.9 1.7 0.00 0.00 0.00 65 999.9
20260509044518 43 131 0.0 1.7 0.00 0.00 0.00 63 1000.1
20260509043518 44 187 0.9 1.7 0.00 0.00 0.00 63 1000.3
20260509042518 44 215 0.0 1.7 0.00 0.00 0.00 61 1000.4
20260509041518 44 193 0.9 1.7 0.00 0.00 0.00 60 1000.7
20260509040533 44 234 0.0 1.7 0.00 0.00 0.00 62 1000.8
20260509035516 44 198 0.0 1.7 0.00 0.00 0.00 65 1001.0
20260509034516 44 202 0.0 0.9 0.00 0.00 0.00 66 1001.2
20260509033516 44 206 0.9 1.7 0.00 0.00 0.00 64 1001.3
20260509032525 44 154 0.0 0.9 0.00 0.00 0.00 63 1001.5
20260509031521 44 148 0.9 2.6 0.00 0.00 0.00 63 1001.6
20260509030517 44 219 0.0 0.9 0.00 0.00 0.00 63 1001.7
20260509025521 44 135 0.0 0.0 0.00 0.00 0.00 65 1001.8
20260509024517 44 199 0.0 0.9 0.00 0.00 0.00 61 1001.8
20260509023518 44 211 0.0 1.7 0.00 0.00 0.00 60 1001.9
20260509022518 45 139 0.0 1.7 0.00 0.00 0.00 61 1001.9
20260509021517 46 163 0.9 2.6 0.00 0.00 0.00 60 1002.0
20260509020519 46 252 0.9 1.7 0.00 0.00 0.00 58 1002.1
20260509015523 47 250 0.0 1.7 0.00 0.00 0.00 55 1001.8
20260509014518 47 162 0.0 0.9 0.00 0.00 0.00 55 1001.9
20260509013518 48 211 0.9 1.7 0.00 0.01 0.00 55 1002.2
20260509012518 48 179 0.0 0.9 0.00 0.01 0.00 52 1002.3
20260509011520 49 131 0.0 2.6 0.00 0.01 0.00 51 1002.4
20260509010518 49 213 0.9 1.7 0.00 0.01 0.00 51 1002.6
20260509005516 49 137 0.0 1.7 0.00 0.01 0.00 51 1002.7
20260509004515 50 0.0 0.0 0.00 0.01 0.00 49 1002.8
20260509003516 50 282 0.9 1.7 0.00 0.01 0.00 46 1002.9
20260509002516 51 158 0.0 1.7 0.00 0.01 0.00 47 1002.6
20260509001516 51 0.0 0.0 0.00 0.01 0.00 46 1002.6
20260509000517 51 115 0.0 1.7 0.00 0.01 0.00 46 1002.6
20260508235517 52 21 0.9 1.7 0.00 0.01 0.00 43 1002.7
20260508234517 52 108 0.0 2.6 0.00 0.01 0.00 44 1002.7
20260508233517 52 118 0.9 2.6 0.00 0.01 0.00 43 1002.7
20260508232517 52 144 1.7 4.3 0.00 0.01 0.00 41 1002.7
20260508231518 52 123 1.7 4.3 0.00 0.01 0.00 41 1002.8
20260508230518 53 189 0.9 2.6 0.00 0.01 0.00 42 1002.8
20260508225518 53 146 0.9 3.5 0.00 0.01 0.00 41 1002.8
20260508224519 53 180 0.9 3.5 0.00 0.01 0.00 40 1002.9
20260508223518 53 163 0.9 3.5 0.00 0.01 0.00 40 1003.0
20260508222518 53 78 1.7 5.2 0.00 0.01 0.00 41 1003.1
20260508221516 54 179 0.9 2.6 0.00 0.01 0.00 40 1003.2
20260508220516 55 144 1.7 3.5 0.00 0.01 0.00 40 1003.2
20260508215518 55 127 1.7 5.2 0.00 0.01 0.00 40 1003.2
20260508214516 55 119 2.6 4.3 0.00 0.01 0.00 38 1003.2
20260508213516 55 71 0.9 3.5 0.00 0.01 0.00 39 1003.3